Regional Weather Roundup
Issued by NWS

Home | Current Version | Previous Version | Text Only | Print | Product List | Glossary Off
Versions: 1 2 3 4 5 6 7 8 9 10 11 12 13 14 15 16 17 18 19 20 21 22 23 24 25 26 27 28 29 30 31 32 33 34 35 36 37 38 39 40 41 42 43 44 45 46 47 48 49 50

000
ASUS43 KIND 190809
RWRIN

WEATHER ROUNDUP FOR INDIANA
NATIONAL WEATHER SERVICE INDIANAPOLIS IN
400 AM EDT SUN APR 19 2015

NOTE: "FAIR" INDICATES FEW OR NO CLOUDS BELOW 12,000 FEET WITH NO
SIGNIFICANT WEATHER AND/OR OBSTRUCTIONS TO VISIBILITY.

* - STATION DOES NOT REPORT WEATHER SUCH AS PRECIPITATION OR FOG.

+ - STATION NOT QUALITY CONTROLLED BY THE NATIONAL WEATHER SERVICE.
    USE DATA WITH CAUTION...ESPECIALLY DEWPOINT AND RELATIVE
    HUMIDITY OBSERVATIONS.

INZ001>003-010>013-019-020-190900-
NORTHWEST INDIANA

CITY           SKY/WX    TMP DP  RH WIND       PRES   REMARKS
GARY /AIRPORT/ MOCLDY    58  16  19 SE10      29.92F
KNOX *+        PTCLDY    54   5  14 E13       29.93F
MICHIGAN CITY+ MOCLDY    54  23  30 E9        29.95F
MONTICELLO +   MOCLDY    54  38  54 E8        29.91F
RENSSELAER +   MOCLDY    54  36  50 E12       29.92F
VALPARAISO     MOCLDY    53  30  41 E12       29.94F

$$

LMZ046-743>745-190900-
SOUTHERN LAKE MICHIGAN

STATION/POSITION TIME  TEMP WIND        PRES
                       AIR  DIR/SP/G
                 (UTC) (F)  (DEG/KT/KT) (MB)
BURNS HARBOR     0800   57  120/ 14/ 20 1013.9S
MICHIGAN CITY    0800   56   80/ 13/ 18   N/A
4NW MICH CITY    0800   52  120/ 12/ 14   N/A

$$

INZ004-005-014>016-021>024-190900-
NORTH CENTRAL INDIANA

CITY           SKY/WX    TMP DP  RH WIND       PRES   REMARKS
GOSHEN         CLOUDY    52  32  46 E13       29.97F
LOGANSPORT +   PTCLDY    52  36  54 E10G16    29.93F
ROCHESTER +    PTCLDY    54  36  50 E13       29.95F
SOUTH BEND     CLOUDY    56  27  32 E13       29.97F
WARSAW +       MOCLDY    52  32  46 E9        29.97F

$$

INZ006>009-017-018-025>027-190900-
NORTHEAST INDIANA

CITY           SKY/WX    TMP DP  RH WIND       PRES   REMARKS
ANGOLA *+      CLEAR     52  28  40 E13       30.01F
AUBURN +       MOCLDY    50  32  50 E14       30.00F
FORT WAYNE     CLOUDY    50  36  58 E17       29.98F
HUNTINGTON +   MOCLDY    49  34  56 E10       29.96F

$$

INZ028-029-035-036-043>045-051>053-190900-
WEST CENTRAL INDIANA

CITY           SKY/WX    TMP DP  RH WIND       PRES   REMARKS
CRAWFORDSVL +  CLOUDY    56  43  61 E8        29.87F
GREENCASTLE +  CLOUDY    61  45  55 E10       29.86F
LAFAYETTE      CLOUDY    56  40  55 E14       29.89F
TERRE HAUTE    CLOUDY    60  48  64 E6        29.83F

$$

INZ030>032-037>040-046>048-054>057-064-065-190900-
CENTRAL INDIANA

CITY           SKY/WX    TMP DP  RH WIND       PRES   REMARKS
CP ATTERBURY + CLOUDY    59  46  63 E6        29.87F
FISHERS *+     CLOUDY    55  46  71 NE5       29.90F
FRANKFORT +    MOCLDY    56  42  60 NE13      29.92F
GREENWOOD *+   CLOUDY    61  46  59 E9        29.88F
INDIANAPOLIS   CLOUDY    62  48  60 E14       29.86F
-EAGLE CREEK   CLOUDY    60  47  61 E7        29.88F
KOKOMO *+      MOCLDY    52  37  58 E12       29.93F
MARION +       MOCLDY    52  36  54 E13       29.94F
MT COMFORT *+  CLOUDY    55  43  62 E8        29.90F
SHELBYVILLE    CLOUDY    62  49  62 E13       29.87F
ZIONSVILLE +   CLOUDY    57  43  58 E8        29.91F

$$

INZ033-034-041-042-049-050-058-059-190900-
EAST CENTRAL INDIANA

CITY           SKY/WX    TMP DP  RH WIND       PRES   REMARKS
MUNCIE         CLOUDY    53  39  59 E13       29.93F

$$

INZ060-061-067>069-081>083-085>088-190900-
SOUTHWEST INDIANA

CITY           SKY/WX    TMP DP  RH WIND       PRES   REMARKS
EVANSVILLE     LGT RAIN  65  55  70 NE3       29.79F
HUNTINGBURG *+ CLOUDY    66  46  48 E10       29.80F
WASHINGTON +   CLOUDY    63  47  57 E5        29.80F

$$

INZ062-063-066-070>080-084-089>092-190900-
SOUTH CENTRAL AND SOUTHEAST INDIANA

CITY           SKY/WX    TMP DP  RH WIND       PRES   REMARKS
BEDFORD +      CLOUDY    66  43  42 E9        29.83F
BLOOMINGTON    CLOUDY    64  46  52 E8        29.84F
MADISON *+     CLOUDY    64  39  39 E10G16    29.87F
NORTH VERNON + CLOUDY    66  43  42 E8        29.87F

$$



USA.gov is the U.S. government's official web portal to all federal, state and local government web resources and services.